Location: ?????????
(38.5999°N, 22.7695°E)
Time: 10:23:19
(UTC+00:00)

BREEZE-M DEB (TANK) - Pass Details

Date: 23 May 2024
Orbit: 288 x 16911 km, 49.4° (Epoch: 23 June)

Event Time Altitude Azimuth Distance (km) Brightness Sun altitude
Exits shadow 00:07:41 16° 302° (WNW) 1,626 5.2 -26.1°
Maximum altitude 00:10:48 84° 215° (SW) 1,021 3.9 -25.8°
Drops below altitude 10° 00:25:16 10° 130° (SE) 6,778 8.2 -24.5°
Sets 00:35:41 0° 131° (SE) 10,408 9.2 -23.4°
